�������l�o���
Date,Time,MP-1(��Sv/h),MP-2(��Sv/h),MP-3(��Sv/h),MP-4(��Sv/h),MP-5(��Sv/h),MP-6(��Sv/h),MP-7(��Sv/h),MP-8(��Sv/h),����,����(m/s),���J
2022/06/05,00:00,0.567,0.828,0.535,1.002,0.714,0.344,0.591,0.557,�k�k��,2.5,��
2022/06/05,00:10,0.567,0.831,0.534,1.003,0.714,0.343,0.591,0.557,�k,4.7,��
2022/06/05,00:20,0.567,0.832,0.535,1.002,0.715,0.344,0.592,0.557,�k,3.7,��
2022/06/05,00:30,0.568,0.831,0.535,1.003,0.715,0.342,0.592,0.558,�k,3.3,��
2022/06/05,00:40,0.566,0.831,0.534,1.001,0.715,0.343,0.592,0.557,�k,3.3,��
2022/06/05,00:50,0.567,0.830,0.536,1.001,0.716,0.341,0.592,0.557,�k,3.3,��
2022/06/05,01:00,0.566,0.828,0.535,0.999,0.714,0.343,0.592,0.558,�k,3.0,��
2022/06/05,01:10,0.567,0.829,0.536,1.002,0.714,0.343,0.594,0.557,�k,3.1,��
2022/06/05,01:20,0.566,0.829,0.534,1.003,0.714,0.343,0.592,0.557,�k,3.2,��
2022/06/05,01:30,0.567,0.829,0.534,1.002,0.714,0.343,0.593,0.557,�k,2.9,��
2022/06/05,01:40,0.567,0.829,0.535,1.001,0.714,0.342,0.592,0.557,�k�k��,3.6,��
2022/06/05,01:50,0.565,0.829,0.535,1.003,0.716,0.341,0.593,0.556,�k�k��,3.4,��
2022/06/05,02:00,0.566,0.830,0.535,1.002,0.715,0.344,0.592,0.558,�k,2.6,��
2022/06/05,02:10,0.566,0.831,0.535,1.004,0.715,0.344,0.591,0.557,�k�k��,2.3,��
2022/06/05,02:20,0.564,0.832,0.535,1.001,0.715,0.343,0.592,0.557,�k,2.3,��
2022/06/05,02:30,0.567,0.830,0.534,1.002,0.716,0.343,0.593,0.556,�k,2.8,��
2022/06/05,02:40,0.566,0.828,0.533,1.001,0.714,0.344,0.592,0.558,�k,2.6,��
2022/06/05,02:50,0.567,0.830,0.536,1.001,0.715,0.342,0.592,0.557,�k,2.0,��
2022/06/05,03:00,0.566,0.829,0.536,1.001,0.716,0.344,0.591,0.557,�k,2.3,��
2022/06/05,03:10,0.567,0.830,0.535,1.001,0.716,0.344,0.592,0.558,�k,2.3,��
2022/06/05,03:20,0.566,0.830,0.535,1.001,0.716,0.345,0.591,0.558,�k,2.8,��
2022/06/05,03:30,0.565,0.828,0.534,1.002,0.714,0.343,0.593,0.558,�k,3.2,��
2022/06/05,03:40,0.567,0.829,0.534,1.000,0.714,0.344,0.592,0.557,�k,2.8,��
2022/06/05,03:50,0.567,0.828,0.535,1.002,0.714,0.342,0.592,0.556,�k,2.9,��
2022/06/05,04:00,0.567,0.830,0.535,1.001,0.716,0.343,0.591,0.558,�k,2.6,��
2022/06/05,04:10,0.565,0.828,0.536,1.002,0.714,0.342,0.590,0.558,�k,2.8,��
2022/06/05,04:20,0.567,0.829,0.533,1.002,0.715,0.343,0.593,0.559,�k,2.5,��
2022/06/05,04:30,0.566,0.829,0.535,1.003,0.716,0.343,0.592,0.557,�k,1.7,��
2022/06/05,04:40,0.567,0.829,0.534,1.002,0.716,0.343,0.590,0.557,�k�k��,1.5,��
2022/06/05,04:50,0.567,0.830,0.534,1.003,0.714,0.343,0.593,0.557,�k,1.1,��
2022/06/05,05:00,0.565,0.830,0.535,1.000,0.716,0.343,0.592,0.557,-,CALM,��
2022/06/05,05:10,0.565,0.828,0.534,1.003,0.714,0.342,0.591,0.557,-,CALM,��
2022/06/05,05:20,0.566,0.830,0.534,1.003,0.714,0.343,0.591,0.556,��,0.6,��
2022/06/05,05:30,0.567,0.829,0.535,1.004,0.714,0.343,0.591,0.558,��,0.8,��
2022/06/05,05:40,0.567,0.831,0.536,1.003,0.715,0.343,0.593,0.558,-,CALM,��
2022/06/05,05:50,0.567,0.829,0.535,1.004,0.715,0.342,0.593,0.560,��,0.6,��
2022/06/05,06:00,0.566,0.828,0.536,1.001,0.714,0.344,0.591,0.557,�k�k��,1.4,��
2022/06/05,06:10,0.566,0.829,0.535,1.002,0.716,0.343,0.591,0.556,-,CALM,��
2022/06/05,06:20,0.566,0.829,0.535,1.004,0.715,0.344,0.590,0.557,�k��,0.9,��
2022/06/05,06:30,0.568,0.832,0.537,1.003,0.714,0.343,0.592,0.558,�k��,1.2,��
2022/06/05,06:40,0.567,0.827,0.536,1.002,0.716,0.342,0.592,0.557,�k��,1.4,��
2022/06/05,06:50,0.567,0.828,0.535,1.004,0.716,0.342,0.590,0.558,�k��,1.4,��
2022/06/05,07:00,0.566,0.830,0.536,1.004,0.715,0.344,0.590,0.557,�k�k��,1.7,��
2022/06/05,07:10,0.567,0.829,0.537,1.003,0.716,0.343,0.591,0.556,�k�k��,1.7,��
2022/06/05,07:20,0.566,0.831,0.535,1.002,0.716,0.342,0.590,0.558,�k��,2.5,��
2022/06/05,07:30,0.567,0.830,0.535,1.000,0.717,0.341,0.590,0.558,�k�k��,2.5,��
2022/06/05,07:40,0.565,0.832,0.536,1.004,0.715,0.342,0.590,0.558,�k��,3.0,��
2022/06/05,07:50,0.565,0.831,0.535,1.003,0.714,0.341,0.588,0.556,�k��,2.8,��
2022/06/05,08:00,0.567,0.830,0.536,1.002,0.715,0.341,0.589,0.556,�k��,3.1,��
2022/06/05,08:10,0.565,0.829,0.536,1.002,0.714,0.342,0.589,0.556,�k��,3.2,��
2022/06/05,08:20,0.564,0.828,0.535,1.002,0.716,0.341,0.589,0.555,�k��,3.1,��
2022/06/05,08:30,0.565,0.828,0.534,1.003,0.713,0.340,0.589,0.555,�k��,3.5,��
2022/06/05,08:40,0.564,0.826,0.535,1.004,0.712,0.340,0.589,0.556,�k��,3.5,��
2022/06/05,08:50,0.564,0.827,0.535,1.002,0.712,0.341,0.590,0.556,�k��,3.5,��
2022/06/05,09:00,0.564,0.829,0.535,1.001,0.712,0.341,0.590,0.556,�k��,2.6,��
2022/06/05,09:10,0.564,0.829,0.536,1.002,0.715,0.341,0.591,0.556,�k��,3.3,��
2022/06/05,09:20,0.566,0.828,0.534,1.005,0.712,0.340,0.591,0.555,�k��,3.5,��
2022/06/05,09:30,0.566,0.827,0.533,1.004,0.712,0.341,0.590,0.555,�k��,3.6,��
2022/06/05,09:40,0.565,0.828,0.534,1.004,0.714,0.341,0.591,0.556,�k��,4.6,��
2022/06/05,09:50,0.564,0.830,0.534,1.005,0.715,0.341,0.590,0.555,�k��,4.1,��
2022/06/05,10:00,0.564,0.830,0.533,1.001,0.714,0.340,0.589,0.556,�k��,4.7,��
2022/06/05,10:10,0.565,0.829,0.533,1.004,0.714,0.341,0.593,0.555,�k��,4.6,��
2022/06/05,10:20,0.565,0.830,0.534,1.003,0.713,0.343,0.592,0.554,�k��,4.8,��
2022/06/05,10:30,0.565,0.829,0.532,1.004,0.715,0.341,0.591,0.556,�k��,4.1,��
2022/06/05,10:40,0.565,0.828,0.534,1.003,0.713,0.340,0.591,0.555,�k��,5.6,��
2022/06/05,10:50,0.565,0.829,0.536,1.002,0.715,0.341,0.591,0.556,�k��,5.1,��
2022/06/05,11:00,0.564,0.829,0.533,1.002,0.716,0.341,0.592,0.554,�k��,4.5,��
2022/06/05,11:10,0.565,0.830,0.533,1.006,0.713,0.341,0.593,0.555,�k�k��,4.5,��
2022/06/05,11:20,0.567,0.830,0.535,1.004,0.717,0.340,0.591,0.556,�k��,4.7,��
2022/06/05,11:30,0.566,0.831,0.535,1.006,0.715,0.341,0.592,0.556,�k��,4.7,��
2022/06/05,11:40,0.567,0.831,0.535,1.005,0.716,0.342,0.592,0.559,�k��,4.4,��
2022/06/05,11:50,0.565,0.830,0.535,1.007,0.715,0.341,0.590,0.555,�k��,4.3,��
2022/06/05,12:00,0.566,0.832,0.534,1.005,0.716,0.341,0.590,0.557,�k��,4.8,��
2022/06/05,12:10,0.567,0.832,0.534,1.003,0.715,0.343,0.591,0.556,���k��,4.3,��
2022/06/05,12:20,0.567,0.832,0.534,1.005,0.715,0.341,0.591,0.556,���k��,4.0,��
2022/06/05,12:30,0.567,0.831,0.532,1.005,0.716,0.342,0.592,0.556,���k��,3.2,��
2022/06/05,12:40,0.567,0.832,0.532,1.006,0.717,0.342,0.591,0.555,���k��,2.8,��
2022/06/05,12:50,0.567,0.832,0.536,1.003,0.717,0.342,0.591,0.558,���k��,3.1,��
2022/06/05,13:00,0.567,0.833,0.533,1.005,0.716,0.341,0.592,0.555,���k��,3.3,��
2022/06/05,13:10,0.568,0.832,0.534,1.004,0.715,0.343,0.592,0.556,���k��,3.0,��
2022/06/05,13:20,0.569,0.832,0.535,1.005,0.716,0.341,0.590,0.557,���k��,2.6,��
2022/06/05,13:30,0.568,0.834,0.536,1.005,0.717,0.342,0.590,0.557,��,3.1,��
2022/06/05,13:40,0.569,0.833,0.536,1.006,0.716,0.342,0.591,0.557,���k��,3.3,��
2022/06/05,13:50,0.569,0.834,0.536,1.009,0.715,0.342,0.590,0.556,���k��,3.2,��
2022/06/05,14:00,0.567,0.832,0.535,1.007,0.717,0.342,0.590,0.556,���k��,3.3,��
2022/06/05,14:10,0.568,0.833,0.534,1.007,0.718,0.341,0.591,0.557,���k��,2.3,��
2022/06/05,14:20,0.569,0.837,0.535,1.005,0.718,0.342,0.590,0.555,���k��,2.9,��
2022/06/05,14:30,0.567,0.834,0.536,1.003,0.719,0.341,0.591,0.556,���k��,2.6,��
2022/06/05,14:40,0.567,0.833,0.535,1.003,0.719,0.341,0.591,0.556,���k��,3.8,��
2022/06/05,14:50,0.570,0.835,0.536,1.004,0.719,0.341,0.591,0.557,���k��,2.6,��
2022/06/05,15:00,0.569,0.836,0.536,1.006,0.717,0.341,0.590,0.557,�k��,2.8,��
2022/06/05,15:10,0.568,0.836,0.536,1.006,0.717,0.341,0.591,0.557,�k��,3.3,��
2022/06/05,15:20,0.569,0.836,0.534,1.006,0.715,0.341,0.592,0.556,�k��,3.6,��
2022/06/05,15:30,0.568,0.834,0.536,1.007,0.716,0.341,0.592,0.557,�k��,3.4,��
2022/06/05,15:40,0.569,0.834,0.535,1.009,0.718,0.341,0.593,0.556,���k��,3.2,��
2022/06/05,15:50,0.567,0.835,0.536,1.008,0.717,0.342,0.592,0.557,�k��,3.0,��
2022/06/05,16:00,0.568,0.835,0.536,1.008,0.718,0.342,0.591,0.557,���k��,3.7,��
2022/06/05,16:10,0.567,0.834,0.535,1.008,0.719,0.341,0.593,0.556,��,3.8,��
2022/06/05,16:20,0.566,0.836,0.535,1.007,0.718,0.341,0.594,0.556,�k��,2.3,��
2022/06/05,16:30,0.568,0.834,0.535,1.007,0.719,0.340,0.593,0.557,���k��,3.1,��
2022/06/05,16:40,0.568,0.834,0.535,1.009,0.719,0.342,0.592,0.555,�k��,3.0,��
2022/06/05,16:50,0.569,0.835,0.535,1.008,0.719,0.341,0.592,0.557,�k��,3.7,��
2022/06/05,17:00,0.567,0.835,0.536,1.009,0.716,0.342,0.592,0.558,�k��,3.3,��
2022/06/05,17:10,0.567,0.836,0.536,1.008,0.716,0.342,0.591,0.557,�k��,3.0,��
2022/06/05,17:20,0.567,0.836,0.538,1.007,0.717,0.342,0.592,0.555,�k��,3.7,��
2022/06/05,17:30,0.567,0.836,0.535,1.007,0.718,0.342,0.593,0.558,�k��,3.9,��
2022/06/05,17:40,0.569,0.836,0.536,1.010,0.717,0.342,0.591,0.556,�k��,3.6,��
2022/06/05,17:50,0.568,0.837,0.535,1.005,0.718,0.342,0.593,0.560,�k��,3.3,��
2022/06/05,18:00,0.567,0.839,0.533,1.011,0.718,0.341,0.590,0.557,�k��,3.6,��
2022/06/05,18:10,0.568,0.839,0.537,1.010,0.720,0.343,0.592,0.556,�k��,3.1,��
2022/06/05,18:20,0.568,0.839,0.538,1.010,0.718,0.343,0.592,0.557,�k��,2.6,��
2022/06/05,18:30,0.568,0.836,0.538,1.009,0.718,0.342,0.593,0.558,�k��,2.5,��
2022/06/05,18:40,0.569,0.839,0.538,1.011,0.718,0.343,0.592,0.558,�k��,2.8,��
2022/06/05,18:50,0.571,0.839,0.538,1.011,0.721,0.344,0.592,0.558,�k��,2.6,��
2022/06/05,19:00,0.572,0.838,0.537,1.006,0.720,0.343,0.591,0.559,�k��,2.6,��
2022/06/05,19:10,0.572,0.838,0.539,1.008,0.720,0.342,0.592,0.558,�k�k��,2.5,��
2022/06/05,19:20,0.571,0.837,0.538,1.008,0.720,0.343,0.593,0.559,�k��,2.2,��
2022/06/05,19:30,0.571,0.839,0.537,1.010,0.720,0.343,0.593,0.559,�k�k��,2.0,��
2022/06/05,19:40,0.572,0.840,0.538,1.008,0.722,0.344,0.594,0.560,�k�k��,2.6,��
2022/06/05,19:50,0.571,0.839,0.539,1.008,0.722,0.344,0.594,0.559,�k�k��,3.1,��
2022/06/05,20:00,0.570,0.838,0.537,1.010,0.722,0.344,0.594,0.560,�k��,2.3,��
2022/06/05,20:10,0.570,0.839,0.537,1.008,0.721,0.343,0.593,0.557,�k��,2.2,��
2022/06/05,20:20,0.570,0.836,0.538,1.009,0.721,0.343,0.595,0.560,�k�k��,3.2,��
2022/06/05,20:30,0.570,0.838,0.536,1.011,0.722,0.344,0.594,0.559,�k�k��,2.3,��
2022/06/05,20:40,0.569,0.839,0.539,1.009,0.722,0.345,0.596,0.560,�k�k��,3.2,��
2022/06/05,20:50,0.570,0.836,0.538,1.007,0.721,0.343,0.594,0.559,�k,3.6,��
2022/06/05,21:00,0.571,0.836,0.537,1.012,0.720,0.344,0.592,0.560,�k�k��,2.9,��
2022/06/05,21:10,0.569,0.838,0.538,1.009,0.720,0.342,0.593,0.558,�k�k��,4.5,��
2022/06/05,21:20,0.570,0.838,0.537,1.007,0.722,0.344,0.594,0.558,�k�k��,5.1,��
2022/06/05,21:30,0.571,0.836,0.538,1.010,0.722,0.344,0.594,0.559,�k�k��,5.2,��
2022/06/05,21:40,0.570,0.838,0.538,1.009,0.721,0.342,0.593,0.559,�k�k��,4.5,��
2022/06/05,21:50,0.569,0.838,0.538,1.008,0.721,0.343,0.594,0.559,�k,4.0,��
2022/06/05,22:00,0.571,0.839,0.537,1.008,0.720,0.343,0.593,0.560,�k,4.1,��
2022/06/05,22:10,0.572,0.836,0.537,1.010,0.721,0.345,0.593,0.559,�k,4.3,��
2022/06/05,22:20,0.570,0.836,0.538,1.010,0.720,0.344,0.593,0.560,�k,3.8,��
2022/06/05,22:30,0.570,0.838,0.539,1.009,0.721,0.344,0.593,0.558,�k,3.8,��
2022/06/05,22:40,0.572,0.836,0.539,1.010,0.722,0.343,0.592,0.558,�k�k��,3.9,��
2022/06/05,22:50,0.571,0.836,0.538,1.009,0.720,0.343,0.592,0.559,�k�k��,4.2,��
2022/06/05,23:00,0.571,0.839,0.538,1.011,0.721,0.343,0.593,0.558,�k�k��,4.5,��
2022/06/05,23:10,0.570,0.837,0.538,1.010,0.720,0.344,0.593,0.559,�k�k��,5.1,��
2022/06/05,23:20,0.570,0.837,0.538,1.009,0.719,0.343,0.593,0.559,�k,5.2,��
2022/06/05,23:30,0.571,0.837,0.538,1.008,0.720,0.342,0.593,0.559,�k�k��,4.2,��
2022/06/05,23:40,0.570,0.838,0.538,1.010,0.722,0.343,0.593,0.561,�k�k��,4.9,�L
2022/06/05,23:50,0.572,0.836,0.541,1.010,0.721,0.342,0.592,0.559,�k�k��,5.1,�L
